Location: Condor
(52.3263°N, 114.5541°W)
Time: 22:22:00
(UTC+00:00)

Oscar 19 - Pass Details

Date: 08 December 2023
Orbit: 771 x 789 km, 98.9° (Epoch: 04 March)

Event Time Altitude Azimuth Distance (km) Brightness Sun altitude
Rises 23:56:48 0° 186° (S) 3,234 14.4 -4.7°
Reaches altitude 10° 23:59:15 10° 194° (SSW) 2,312 13.8 -5.0°
Maximum altitude 00:03:59 38° 263° (W) 1,165 12.3 -5.7°
Drops below altitude 10° 00:08:46 10° 331° (NNW) 2,333 13.1 -6.3°
Sets 00:11:15 0° 340° (NNW) 3,268 13.8 -6.6°
